Location: Unspecified
(43.4354°N, 0.0000°E)
Time: 09:23:54
(UTC+00:00)

A-11 Canister half - Pass Details

Date: 23 June 2019
Orbit: 1514 x 1686 km, 47.2° (Epoch: 24 August)

Event Time Altitude Azimuth Distance (km) Brightness Sun altitude
Rises 13:08:50 0° 273° (W) 4,872 11.8 65.7°
Reaches altitude 10° 13:12:02 10° 276° (W) 3,863 11.5 65.4°
Maximum altitude 13:21:52 71° 1° (N) 1,664 10.1 64.1°
Drops below altitude 10° 13:31:20 10° 85° (E) 3,727 10.9 62.9°
Sets 13:34:22 0° 88° (E) 4,692 11.3 62.4°
